Regional Weather Roundup
Issued by NWS

Home | Current Version | Previous Version | Graphics & Text | Print | Product List | Glossary On
Versions: 1 2 3 4 5 6 7 8 9 10 11 12 13 14 15 16 17 18 19 20 21 22 23 24 25 26 27 28 29 30 31 32 33 34 35 36 37 38 39 40 41 42 43 44 45 46 47 48 49 50
000
ASUS45 KSLC 070210
RWRUT

UTAH REGIONAL WEATHER ROUNDUP
NATIONAL WEATHER SERVICE SALT LAKE CITY UT
700 PM MST FRI MAR 06 2015

UTZ001>011-023>025-070300-

NORTHERN UTAH

CITY           SKY/WX    TMP DP  RH WIND       PRES   REMARKS
BRIGHAM CITY   CLEAR     49  24  37 CALM      30.38S
HILL AFB       CLEAR     47  21  35 N3        30.38R
LOGAN          CLEAR     46  26  45 CALM      30.37S
OGDEN          CLEAR     45  24  43 CALM      30.37S
PROVO AIRPORT  CLEAR     45  27  49 CALM      30.37S
SALT LAKE CITY PTCLDY    46  31  55 N8        30.37S
VERNAL         CLEAR     39  24  55 W5        30.36R
WENDOVER       CLEAR     50  19  29 CALM      30.37S
HEBER CITY     CLEAR     39  25  56 CALM      30.36S
WEST JORDAN    CLEAR     45  28  53 W6        30.39R

$$

UTZ012>022-026-027-070300-

SOUTHERN/CENTRAL UTAH

CITY           SKY/WX    TMP DP  RH WIND       PRES   REMARKS
BLANDING       CLEAR     43  33  67 CALM      30.38S
BRYCE CANYON   CLEAR     28  18  66 N7        30.37R WCI  21
CEDAR CITY     CLEAR     39  25  57 NE5       30.32R
DELTA          CLEAR     49  22  35 NW5       30.35S
HANKSVILLE     CLEAR     43  19  39 CALM      30.35R
MILFORD        CLEAR     43  26  51 N7        30.34R
MOAB/CYNLANDS  CLEAR     41  21  44 NW9       30.30S
PRICE          CLEAR     42  25  50 MISG      30.35R
ST GEORGE      CLEAR     61  25  25 NE13      30.23S
KANAB          CLEAR     46  25  42 N6        30.33R

$$

REGIONAL REPORTS     COLORADO/ARIZONA

CITY           SKY/WX    TMP DP  RH WIND       PRES   REMARKS
CRAIG, CO      CLEAR     34  21  59 CALM      30.37R
GRAND JUNCTION CLEAR     40  21  46 N5        30.31F
RIFLE          CLEAR     39  22  50 S8        30.33R WCI  33
MONTROSE       CLEAR     42  25  50 CALM      30.36R
CORTEZ         CLEAR     42  28  57 CALM      30.31S
PAGE, AZ       CLEAR     50  22  33 CALM      30.29F
GRAND CANYON   CLEAR     40  21  46 NE14      30.30S WCI  32
KINGMAN        CLEAR     56  27  32 NE10      30.15R
FLAGSTAFF      PTCLDY    41  14  33 NE12      30.26F

$$

REGIONAL REPORTS    NEVADA/IDAHO/WYOMING

CITY           SKY/WX    TMP DP  RH WIND       PRES   REMARKS
LAS VEGAS, NV  CLEAR     67  13  12 SE5       30.12F
ELY            CLEAR     43  21  41 NE7       30.35R
ELKO           CLEAR     51  12  21 E6        30.32F
POCATELLO, ID  CLEAR     40  20  44 S7        30.36R
BURLEY         CLEAR     45  16  31 W3        30.34S
EVANSTON, WY   CLEAR     36  20  52 W8        30.39R WCI  30
ROCK SPRINGS   CLEAR     36  22  56 SW13      30.32R WCI  27
KEMMERER       CLEAR     34  19  55 NW15      30.37S WCI  24

$$



USA.gov is the U.S. government's official web portal to all federal, state and local government web resources and services.